Lid_Strength_Index
5 6 5 5 4 4 4 2 3 2 3 1 2 3 3 2 2 2 1 1 1 1 1 1 1 1 1 2 2 1 1 1
5 4 4 5 5 4 4 3 4 4 1 2 2 2 2 2 2 2 1 1 1 1 1 1 1 1 1 1 1 1 1 1
5 5 4 3 3 3 3 4 3 2 2 2 2 2 1 2 2 1 1 1 1 1 1 1 1 1 1 2 2 2 2 2
5 4 4 4 3 3 3 3 2 2 2 2 1 1 1 3 2 1 1 1 1 1 1 1 2 1 3 3 2 2 2 2
5 4 4 4 3 3 3 3 3 3 2 2 2 2 2 2 2 1 2 2 2 2 3 4 3 3 4 4 2 3 2 2
4 4 4 3 3 3 3 2 2 2 3 2 2 3 3 3 2 2 2 3 4 4 4 3 3 1 3 4 4 4 2 2
4 3 3 3 3 2 2 2 3 3 4 3 3 2 2 3 3 3 3 5 4 4 3 3 3 3 4 3 3 2 3 2
4 3 3 3 3 3 3 3 3 4 3 3 3 2 3 4 5 4 4 4 3 2 2 2 2 2 3 3 3 3 3 3
3 3 3 3 3 4 4 3 3 2 3 3 3 3 3 4 3 4 4 3 3 3 2 1 1 1 1 3 5 4 3 3
3 3 3 3 3 3 3 4 3 3 3 3 3 4 2 2 4 3 3 2 2 2 3 3 2 2 3 3 4 5 4 3
3 3 3 3 2 3 4 4 4 3 3 4 3 3 3 3 2 2 3 2 2 2 2 3 3 3 2 4 4 4 4 3
4 5 5 4 4 2 3 3 3 3 4 4 4 3 4 2 2 2 3 4 3 2 3 3 3 2 3 4 3 3 4 4
4 4 4 4 3 3 3 2 2 3 3 3 4 4 3 3 2 3 3 2 2 4 4 3 4 4 4 7 6 5 5 5
5 4 4 4 4 4 3 2 2 3 4 4 4 3 3 3 3 2 4 4 6 7 7 6 4 5 7 8 7 8 8 8
5 4 4 4 4 4 2 1 2 3 4 4 3 4 4 4 3 4 4 3 5 6 7 6 6 6 7 7 7 8 7 7
4 4 4 4 4 3 2 1 2 3 4 5 4 3 3 4 4 4 4 5 5 5 6 5 6 6 7 7 7 5 3 5
3 3 3 2 2 2 1 1 3 3 3 3 4 4 3 4 4 5 5 6 6 5 4 4 4 5 6 6 6 3 4 4
3 4 3 2 2 2 1 3 2 1 1 4 4 3 3 4 5 5 6 6 6 5 7 6 6 5 4 4 4 4 5 6
2 3 2 3 3 3 2 2 2 1 2 2 4 3 5 6 5 5 6 6 7 6 6 6 11 8 5 4 5 5 6 7
3 3 3 4 4 3 2 1 2 3 2 3 4 4 5 4 5 5 6 6 6 6 5 5 9 7 6 7 7 6 6 7